| time (UTC) | temp F | wind direction | speed MPH | gust MPH | rain 1hr in | rain 24hr in | rain mn in | humidity % | barometer mb |
| 20260509115310 | 71 | 56 | 0.0 | 0.0 | 0.00 | 0.00 | 0.00 | 99 | 1010.4 |
| 20260509114809 | 71 | 58 | 0.0 | 0.0 | 0.00 | 0.00 | 0.00 | 99 | 1010.4 |
| 20260509114307 | 71 | 64 | 0.0 | 0.0 | 0.00 | 0.00 | 0.00 | 99 | 1010.4 |
| 20260509113806 | 71 | 65 | 0.0 | 0.0 | 0.00 | 0.00 | 0.00 | 99 | 1010.1 |
| 20260509113302 | 71 | 96 | 0.0 | 0.0 | 0.00 | 0.00 | 0.00 | 99 | 1010.1 |
| 20260509112759 | 71 | 106 | 1.0 | 2.0 | 0.00 | 0.00 | 0.00 | 99 | 1010.2 |
| 20260509112256 | 71 | 51 | 0.0 | 0.0 | 0.00 | 0.00 | 0.00 | 99 | 1010.3 |
| 20260509111753 | 71 | 72 | 1.0 | 1.0 | 0.00 | 0.00 | 0.00 | 99 | 1010.0 |
| 20260509111250 | 71 | 57 | 0.0 | 0.0 | 0.00 | 0.00 | 0.00 | 99 | 1010.1 |
| 20260509110747 | 71 | 51 | 0.0 | 0.0 | 0.00 | 0.00 | 0.00 | 99 | 1009.6 |
| 20260509110244 | 71 | 53 | 0.0 | 0.0 | 0.00 | 0.00 | 0.00 | 99 | 1009.7 |
| 20260509105742 | 71 | 44 | 0.0 | 0.0 | 0.00 | 0.00 | 0.00 | 99 | 1009.2 |
| 20260509105239 | 71 | 53 | 0.0 | 0.0 | 0.00 | 0.00 | 0.00 | 99 | 1009.6 |
| 20260509104736 | 71 | 43 | 0.0 | 0.0 | 0.00 | 0.00 | 0.00 | 99 | 1009.7 |
| 20260509104233 | 71 | 68 | 0.0 | 0.0 | 0.00 | 0.00 | 0.00 | 99 | 1009.5 |
| 20260509103731 | 71 | 61 | 0.0 | 0.0 | 0.00 | 0.00 | 0.00 | 99 | 1009.6 |
| 20260509103228 | 71 | 53 | 0.0 | 0.0 | 0.00 | 0.00 | 0.00 | 99 | 1009.7 |
| 20260509102726 | 71 | 45 | 0.0 | 0.0 | 0.00 | 0.00 | 0.00 | 99 | 1009.7 |
| 20260509102223 | 71 | 44 | 0.0 | 0.0 | 0.00 | 0.00 | 0.00 | 99 | 1010.0 |
| 20260509101719 | 71 | 47 | 0.0 | 0.0 | 0.00 | 0.00 | 0.00 | 99 | 1010.0 |
| 20260509101216 | 71 | 56 | 0.0 | 0.0 | 0.00 | 0.00 | 0.00 | 99 | 1009.6 |
| 20260509100713 | 71 | 58 | 0.0 | 0.0 | 0.00 | 0.00 | 0.00 | 99 | 1009.6 |
| 20260509100210 | 71 | 58 | 0.0 | 0.0 | 0.00 | 0.00 | 0.00 | 99 | 1009.2 |
| 20260509095707 | 71 | 53 | 0.0 | 0.0 | 0.00 | 0.00 | 0.00 | 99 | 1009.3 |
| 20260509095204 | 71 | 71 | 0.0 | 0.0 | 0.00 | 0.00 | 0.00 | 99 | 1009.3 |
| 20260509094701 | 71 | 72 | 0.0 | 0.0 | 0.00 | 0.00 | 0.00 | 99 | 1009.4 |
| 20260509094158 | 71 | 57 | 0.0 | 0.0 | 0.00 | 0.00 | 0.00 | 99 | 1009.2 |
| 20260509093656 | 71 | 52 | 0.0 | 0.0 | 0.00 | 0.00 | 0.00 | 99 | 1009.1 |
| 20260509093153 | 71 | 57 | 0.0 | 0.0 | 0.00 | 0.00 | 0.00 | 99 | 1009.0 |
| 20260509092651 | 71 | 67 | 0.0 | 0.0 | 0.00 | 0.00 | 0.00 | 99 | 1009.1 |
| 20260509092149 | 71 | 73 | 0.0 | 0.0 | 0.00 | 0.00 | 0.00 | 99 | 1009.0 |
| 20260509091647 | 71 | 73 | 0.0 | 0.0 | 0.00 | 0.00 | 0.00 | 99 | 1008.9 |
| 20260509091143 | 71 | 74 | 0.0 | 0.0 | 0.00 | 0.00 | 0.00 | 99 | 1009.2 |
| 20260509090641 | 71 | 74 | 0.0 | 0.0 | 0.00 | 0.00 | 0.00 | 99 | 1009.0 |
| 20260509090138 | 71 | 85 | 0.0 | 0.0 | 0.00 | 0.00 | 0.00 | 99 | 1008.7 |
| 20260509085635 | 71 | 80 | 0.0 | 0.0 | 0.00 | 0.00 | 0.00 | 99 | 1008.6 |
| 20260509085131 | 71 | 83 | 0.0 | 0.0 | 0.00 | 0.00 | 0.00 | 99 | 1008.6 |
| 20260509084628 | 71 | 117 | 1.0 | 1.0 | 0.00 | 0.00 | 0.00 | 98 | 1008.7 |
| 20260509084125 | 71 | 87 | 0.0 | 0.0 | 0.00 | 0.00 | 0.00 | 98 | 1008.7 |
| 20260509083623 | 71 | 209 | 0.0 | 1.0 | 0.00 | 0.00 | 0.00 | 98 | 1008.9 |
| 20260509083119 | 71 | 92 | 1.0 | 1.0 | 0.00 | 0.00 | 0.00 | 98 | 1008.8 |
| 20260509082617 | 71 | 131 | 0.0 | 1.0 | 0.00 | 0.00 | 0.00 | 98 | 1009.0 |
| 20260509082113 | 71 | 93 | 0.0 | 1.0 | 0.00 | 0.00 | 0.00 | 98 | 1009.0 |
| 20260509081610 | 71 | 80 | 0.0 | 1.0 | 0.00 | 0.00 | 0.00 | 98 | 1008.8 |
| 20260509081107 | 71 | 109 | 3.0 | 3.0 | 0.00 | 0.00 | 0.00 | 98 | 1009.2 |
| 20260509080606 | 71 | 130 | 1.0 | 2.0 | 0.00 | 0.00 | 0.00 | 98 | 1008.8 |
| 20260509075601 | 71 | 105 | 0.0 | 1.0 | 0.00 | 0.00 | 0.00 | 98 | 1008.8 |
| 20260509075059 | 71 | 125 | 3.0 | 5.0 | 0.00 | 0.00 | 0.00 | 98 | 1008.8 |
| 20260509074555 | 71 | 125 | 1.0 | 2.0 | 0.00 | 0.00 | 0.00 | 98 | 1008.7 |
| 20260509074051 | 71 | 99 | 1.0 | 1.0 | 0.00 | 0.00 | 0.00 | 98 | 1009.1 |
| 20260509073548 | 71 | 83 | 1.0 | 1.0 | 0.00 | 0.00 | 0.00 | 98 | 1008.8 |
| 20260509073045 | 71 | 247 | 2.0 | 2.0 | 0.00 | 0.00 | 0.00 | 98 | 1008.7 |
| 20260509072541 | 71 | 147 | 3.0 | 3.0 | 0.00 | 0.00 | 0.00 | 98 | 1008.6 |
| 20260509072038 | 71 | 104 | 2.0 | 2.0 | 0.00 | 0.00 | 0.00 | 98 | 1008.8 |
| 20260509071535 | 71 | 89 | 1.0 | 1.0 | 0.00 | 0.00 | 0.00 | 98 | 1008.8 |
| 20260509071033 | 71 | 87 | 0.0 | 1.0 | 0.00 | 0.00 | 0.00 | 98 | 1008.8 |
| 20260509070529 | 71 | 87 | 1.0 | 1.0 | 0.00 | 0.00 | 0.00 | 97 | 1009.0 |
| 20260509070025 | 71 | 100 | 0.0 | 0.0 | 0.00 | 0.00 | 0.00 | 97 | 1009.1 |
| 20260509065521 | 71 | 92 | 1.0 | 2.0 | 0.00 | 0.00 | 0.00 | 97 | 1009.0 |
| 20260509065017 | 71 | 150 | 2.0 | 2.0 | 0.00 | 0.00 | 0.00 | 97 | 1009.2 |
| 20260509064515 | 71 | 129 | 2.0 | 2.0 | 0.00 | 0.00 | 0.00 | 97 | 1009.1 |
| 20260509064013 | 71 | 85 | 2.0 | 3.0 | 0.00 | 0.00 | 0.00 | 97 | 1009.2 |
| 20260509063508 | 71 | 131 | 2.0 | 3.0 | 0.00 | 0.00 | 0.00 | 97 | 1008.8 |
| 20260509063006 | 71 | 98 | 1.0 | 1.0 | 0.00 | 0.00 | 0.00 | 97 | 1008.9 |
| 20260509062503 | 71 | 149 | 3.0 | 3.0 | 0.00 | 0.00 | 0.00 | 97 | 1009.1 |
| 20260509062001 | 71 | 146 | 2.0 | 2.0 | 0.00 | 0.00 | 0.00 | 97 | 1009.2 |
| 20260509061457 | 71 | 209 | 2.0 | 2.0 | 0.00 | 0.00 | 0.00 | 97 | 1009.1 |
| 20260509060954 | 71 | 88 | 1.0 | 2.0 | 0.00 | 0.00 | 0.00 | 97 | 1009.1 |
| 20260509060452 | 71 | 130 | 2.0 | 2.0 | 0.00 | 0.00 | 0.00 | 97 | 1008.9 |
| 20260509055947 | 71 | 124 | 2.0 | 2.0 | 0.00 | 0.00 | 0.00 | 97 | 1009.2 |
| 20260509055443 | 71 | 119 | 2.0 | 2.0 | 0.00 | 0.00 | 0.00 | 97 | 1009.3 |
| 20260509054939 | 71 | 109 | 2.0 | 2.0 | 0.00 | 0.00 | 0.00 | 97 | 1009.3 |
| 20260509054436 | 71 | 141 | 2.0 | 2.0 | 0.00 | 0.00 | 0.00 | 97 | 1009.3 |
| 20260509053934 | 71 | 122 | 2.0 | 2.0 | 0.00 | 0.00 | 0.00 | 97 | 1009.7 |
| 20260509053432 | 71 | 57 | 2.0 | 3.0 | 0.00 | 0.00 | 0.00 | 97 | 1009.8 |
| 20260509052929 | 71 | 96 | 2.0 | 2.0 | 0.00 | 0.00 | 0.00 | 97 | 1009.6 |
| 20260509052427 | 71 | 72 | 1.0 | 1.0 | 0.00 | 0.00 | 0.00 | 97 | 1009.8 |
| 20260509051925 | 71 | 121 | 2.0 | 2.0 | 0.00 | 0.00 | 0.00 | 97 | 1009.5 |
| 20260509051422 | 71 | 142 | 2.0 | 2.0 | 0.00 | 0.00 | 0.00 | 97 | 1009.8 |
| 20260509050919 | 71 | 102 | 1.0 | 2.0 | 0.00 | 0.00 | 0.00 | 97 | 1009.6 |
| 20260509050415 | 71 | 123 | 2.0 | 2.0 | 0.00 | 0.00 | 0.00 | 97 | 1009.6 |
| 20260509045912 | 71 | 85 | 1.0 | 1.0 | 0.00 | 0.00 | 0.00 | 97 | 1009.6 |
| 20260509045409 | 71 | 102 | 1.0 | 1.0 | 0.00 | 0.00 | 0.00 | 97 | 1009.6 |
| 20260509044906 | 71 | 107 | 1.0 | 2.0 | 0.00 | 0.00 | 0.00 | 97 | 1009.7 |
| 20260509044404 | 71 | 91 | 0.0 | 0.0 | 0.00 | 0.00 | 0.00 | 97 | 1009.3 |
| 20260509043901 | 71 | 131 | 2.0 | 2.0 | 0.00 | 0.00 | 0.00 | 97 | 1009.1 |
| 20260509043356 | 71 | 88 | 0.0 | 1.0 | 0.00 | 0.00 | 0.00 | 97 | 1009.4 |
| 20260509042852 | 71 | 98 | 1.0 | 2.0 | 0.00 | 0.00 | 0.00 | 97 | 1009.1 |
| 20260509042349 | 71 | 112 | 1.0 | 2.0 | 0.00 | 0.00 | 0.00 | 97 | 1009.2 |
| 20260509041846 | 71 | 85 | 1.0 | 2.0 | 0.00 | 0.00 | 0.00 | 97 | 1009.2 |
| 20260509041343 | 71 | 151 | 1.0 | 2.0 | 0.00 | 0.00 | 0.00 | 97 | 1009.1 |
| 20260509040841 | 71 | 130 | 2.0 | 2.0 | 0.00 | 0.00 | 0.00 | 96 | 1008.8 |
| 20260509040338 | 71 | 104 | 1.0 | 1.0 | 0.00 | 0.00 | 0.00 | 96 | 1008.9 |
| 20260509035835 | 71 | 76 | 0.0 | 0.0 | 0.00 | 0.00 | 0.00 | 96 | 1008.8 |
| 20260509035332 | 71 | 102 | 2.0 | 2.0 | 0.00 | 0.00 | 0.00 | 96 | 1009.0 |
| 20260509034828 | 71 | 96 | 1.0 | 2.0 | 0.00 | 0.00 | 0.00 | 96 | 1008.8 |
| 20260509034327 | 71 | 112 | 2.0 | 2.0 | 0.00 | 0.00 | 0.00 | 96 | 1009.0 |
| 20260509033823 | 71 | 108 | 2.0 | 3.0 | 0.00 | 0.00 | 0.00 | 96 | 1009.3 |
| 20260509033320 | 71 | 73 | 1.0 | 2.0 | 0.00 | 0.00 | 0.00 | 96 | 1008.9 |
| 20260509032817 | 71 | 114 | 1.0 | 1.0 | 0.00 | 0.00 | 0.00 | 96 | 1008.8 |
| 20260509032314 | 72 | 95 | 1.0 | 1.0 | 0.00 | 0.00 | 0.00 | 95 | 1009.0 |
| 20260509031812 | 72 | 100 | 2.0 | 2.0 | 0.00 | 0.00 | 0.00 | 95 | 1008.8 |
| 20260509031309 | 72 | 97 | 1.0 | 1.0 | 0.00 | 0.00 | 0.00 | 95 | 1008.9 |
| 20260509030807 | 72 | 68 | 0.0 | 0.0 | 0.00 | 0.00 | 0.00 | 95 | 1008.9 |
| 20260509030304 | 72 | 78 | 1.0 | 1.0 | 0.00 | 0.00 | 0.00 | 95 | 1009.1 |
| 20260509025801 | 72 | 75 | 0.0 | 1.0 | 0.00 | 0.00 | 0.00 | 95 | 1008.9 |
| 20260509025256 | 72 | 81 | 0.0 | 1.0 | 0.00 | 0.00 | 0.00 | 95 | 1009.0 |
| 20260509024752 | 72 | 84 | 1.0 | 1.0 | 0.00 | 0.00 | 0.00 | 95 | 1008.9 |
| 20260509024248 | 72 | 94 | 1.0 | 1.0 | 0.00 | 0.00 | 0.00 | 95 | 1008.9 |
| 20260509023746 | 72 | 64 | 0.0 | 0.0 | 0.00 | 0.00 | 0.00 | 94 | 1008.8 |
| 20260509023243 | 72 | 78 | 0.0 | 0.0 | 0.00 | 0.00 | 0.00 | 94 | 1008.8 |
| 20260509022739 | 72 | 66 | 0.0 | 0.0 | 0.00 | 0.00 | 0.00 | 94 | 1008.5 |
| 20260509022237 | 72 | 102 | 1.0 | 2.0 | 0.00 | 0.00 | 0.00 | 94 | 1008.4 |
| 20260509021733 | 72 | 123 | 2.0 | 2.0 | 0.00 | 0.00 | 0.00 | 94 | 1008.2 |
| 20260509021231 | 73 | 89 | 0.0 | 1.0 | 0.00 | 0.00 | 0.00 | 94 | 1008.4 |
| 20260509020728 | 73 | 70 | 0.0 | 0.0 | 0.00 | 0.00 | 0.00 | 94 | 1008.2 |
| 20260509020225 | 73 | 94 | 1.0 | 1.0 | 0.00 | 0.00 | 0.00 | 94 | 1008.1 |
| 20260509015723 | 73 | 100 | 1.0 | 2.0 | 0.00 | 0.00 | 0.00 | 94 | 1008.3 |
| 20260509015222 | 73 | 69 | 0.0 | 0.0 | 0.00 | 0.00 | 0.00 | 93 | 1008.0 |
| 20260509014718 | 73 | 115 | 1.0 | 1.0 | 0.00 | 0.00 | 0.00 | 93 | 1007.9 |
| 20260509014215 | 73 | 121 | 1.0 | 1.0 | 0.00 | 0.00 | 0.00 | 93 | 1007.9 |
| 20260509013711 | 73 | 108 | 2.0 | 2.0 | 0.00 | 0.00 | 0.00 | 93 | 1007.8 |
| 20260509013207 | 73 | 77 | 0.0 | 1.0 | 0.00 | 0.00 | 0.00 | 92 | 1007.9 |
| 20260509012704 | 73 | 76 | 0.0 | 1.0 | 0.00 | 0.00 | 0.00 | 92 | 1007.7 |
| 20260509012200 | 73 | 85 | 1.0 | 1.0 | 0.00 | 0.00 | 0.00 | 92 | 1007.8 |
| 20260509011658 | 73 | 84 | 1.0 | 1.0 | 0.00 | 0.00 | 0.00 | 91 | 1008.1 |
| 20260509011155 | 73 | 82 | 0.0 | 1.0 | 0.00 | 0.00 | 0.00 | 91 | 1008.0 |
| 20260509010653 | 73 | 80 | 2.0 | 2.0 | 0.00 | 0.00 | 0.00 | 91 | 1007.8 |
| 20260509010149 | 74 | 73 | 2.0 | 2.0 | 0.00 | 0.00 | 0.00 | 90 | 1007.8 |
| 20260509005647 | 74 | 86 | 1.0 | 1.0 | 0.00 | 0.00 | 0.00 | 90 | 1007.8 |
| 20260509005143 | 74 | 98 | 1.0 | 2.0 | 0.00 | 0.00 | 0.00 | 89 | 1007.9 |
| 20260509004639 | 74 | 84 | 1.0 | 1.0 | 0.00 | 0.00 | 0.00 | 89 | 1007.9 |
| 20260509004136 | 74 | 94 | 1.0 | 1.0 | 0.00 | 0.00 | 0.00 | 89 | 1007.6 |
| 20260509003635 | 74 | 84 | 1.0 | 2.0 | 0.00 | 0.00 | 0.00 | 89 | 1007.6 |
| 20260509003132 | 74 | 75 | 0.0 | 0.0 | 0.00 | 0.00 | 0.00 | 89 | 1007.8 |
| 20260509002629 | 74 | 85 | 0.0 | 1.0 | 0.00 | 0.00 | 0.00 | 88 | 1007.8 |
| 20260509002126 | 75 | 101 | 1.0 | 1.0 | 0.00 | 0.00 | 0.00 | 88 | 1007.6 |
| 20260509001624 | 75 | 121 | 2.0 | 2.0 | 0.00 | 0.00 | 0.00 | 87 | 1007.6 |
| 20260509001119 | 75 | 66 | 1.0 | 2.0 | 0.00 | 0.00 | 0.00 | 87 | 1008.0 |
| 20260509000618 | 75 | 127 | 3.0 | 3.0 | 0.00 | 0.00 | 0.00 | 87 | 1007.7 |
| 20260509000114 | 75 | 83 | 1.0 | 1.0 | 0.00 | 0.00 | 0.00 | 87 | 1008.0 |
| 20260508235612 | 75 | 108 | 1.0 | 1.0 | 0.00 | 0.00 | 0.00 | 87 | 1007.8 |
| 20260508235108 | 75 | 68 | 0.0 | 0.0 | 0.00 | 0.00 | 0.00 | 86 | 1007.8 |
| 20260508234606 | 75 | 99 | 2.0 | 2.0 | 0.00 | 0.00 | 0.00 | 86 | 1007.7 |
| 20260508234102 | 75 | 112 | 2.0 | 2.0 | 0.00 | 0.00 | 0.00 | 86 | 1007.6 |
| 20260508233601 | 76 | 107 | 1.0 | 2.0 | 0.00 | 0.00 | 0.00 | 86 | 1007.8 |
| 20260508233058 | 76 | 96 | 1.0 | 1.0 | 0.00 | 0.00 | 0.00 | 86 | 1007.7 |
| 20260508232555 | 76 | 154 | 2.0 | 3.0 | 0.00 | 0.00 | 0.00 | 86 | 1007.9 |
| 20260508232052 | 76 | 82 | 2.0 | 2.0 | 0.00 | 0.00 | 0.00 | 84 | 1007.6 |
| 20260508231550 | 77 | 142 | 2.0 | 3.0 | 0.00 | 0.00 | 0.00 | 84 | 1007.8 |
| 20260508231046 | 77 | 90 | 1.0 | 1.0 | 0.00 | 0.00 | 0.00 | 84 | 1007.5 |
| 20260508230543 | 76 | 137 | 5.0 | 6.0 | 0.00 | 0.00 | 0.00 | 85 | 1007.8 |
| 20260508230040 | 76 | 63 | 1.0 | 2.0 | 0.00 | 0.00 | 0.00 | 85 | 1007.7 |
| 20260508225537 | 76 | 155 | 4.0 | 6.0 | 0.00 | 0.00 | 0.00 | 84 | 1007.7 |
| 20260508225033 | 76 | 117 | 2.0 | 3.0 | 0.00 | 0.00 | 0.00 | 85 | 1007.8 |
| 20260508224532 | 76 | 159 | 2.0 | 3.0 | 0.00 | 0.00 | 0.00 | 85 | 1008.1 |
| 20260508224029 | 75 | 151 | 2.0 | 2.0 | 0.00 | 0.00 | 0.00 | 85 | 1007.8 |
| 20260508223527 | 75 | 174 | 4.0 | 6.0 | 0.00 | 0.00 | 0.00 | 84 | 1007.9 |
| 20260508223023 | 75 | 106 | 1.0 | 2.0 | 0.00 | 0.00 | 0.00 | 85 | 1008.0 |
| 20260508222521 | 75 | 93 | 2.0 | 2.0 | 0.00 | 0.00 | 0.00 | 85 | 1008.0 |
| 20260508222018 | 75 | 136 | 3.0 | 5.0 | 0.00 | 0.00 | 0.00 | 85 | 1007.8 |
| 20260508221514 | 74 | 87 | 0.0 | 1.0 | 0.00 | 0.00 | 0.00 | 85 | 1007.9 |
| 20260508221010 | 75 | 141 | 3.0 | 3.0 | 0.00 | 0.00 | 0.00 | 85 | 1008.0 |
| 20260508220507 | 75 | 102 | 2.0 | 2.0 | 0.00 | 0.00 | 0.00 | 85 | 1008.3 |
| 20260508220003 | 75 | 139 | 4.0 | 5.0 | 0.00 | 0.00 | 0.00 | 85 | 1008.0 |
| 20260508215500 | 75 | 161 | 2.0 | 2.0 | 0.00 | 0.00 | 0.00 | 85 | 1008.0 |
| 20260508214956 | 75 | 107 | 1.0 | 1.0 | 0.00 | 0.00 | 0.00 | 86 | 1008.1 |
| 20260508214454 | 75 | 135 | 3.0 | 3.0 | 0.00 | 0.00 | 0.00 | 86 | 1008.4 |
| 20260508213950 | 75 | 74 | 2.0 | 3.0 | 0.00 | 0.00 | 0.00 | 85 | 1008.2 |
| 20260508213448 | 75 | 155 | 3.0 | 3.0 | 0.00 | 0.00 | 0.00 | 85 | 1008.3 |
| 20260508212942 | 75 | 98 | 2.0 | 2.0 | 0.00 | 0.00 | 0.00 | 85 | 1008.7 |
| 20260508212440 | 75 | 153 | 5.0 | 6.0 | 0.00 | 0.00 | 0.00 | 85 | 1008.2 |
| 20260508211935 | 75 | 113 | 2.0 | 3.0 | 0.00 | 0.00 | 0.00 | 85 | 1008.4 |
| 20260508211431 | 75 | 133 | 2.0 | 2.0 | 0.00 | 0.00 | 0.00 | 85 | 1008.4 |
| 20260508210929 | 75 | 168 | 3.0 | 3.0 | 0.00 | 0.00 | 0.00 | 85 | 1008.9 |
| 20260508210425 | 75 | 105 | 2.0 | 2.0 | 0.00 | 0.00 | 0.00 | 85 | 1008.8 |
| 20260508205922 | 75 | 144 | 5.0 | 6.0 | 0.00 | 0.00 | 0.00 | 85 | 1008.6 |
| 20260508205419 | 75 | 136 | 4.0 | 6.0 | 0.00 | 0.00 | 0.00 | 84 | 1008.7 |
| 20260508204915 | 75 | 84 | 1.0 | 1.0 | 0.00 | 0.00 | 0.00 | 84 | 1008.9 |
| 20260508204413 | 75 | 143 | 3.0 | 5.0 | 0.00 | 0.00 | 0.00 | 83 | 1008.7 |
| 20260508203908 | 75 | 141 | 2.0 | 3.0 | 0.00 | 0.00 | 0.00 | 83 | 1008.8 |
| 20260508203404 | 75 | 106 | 3.0 | 3.0 | 0.00 | 0.00 | 0.00 | 84 | 1008.9 |
| 20260508202900 | 75 | 130 | 3.0 | 3.0 | 0.00 | 0.00 | 0.00 | 84 | 1009.0 |
| 20260508202357 | 75 | 151 | 3.0 | 5.0 | 0.00 | 0.00 | 0.00 | 83 | 1008.9 |
| 20260508201855 | 76 | 145 | 3.0 | 3.0 | 0.00 | 0.00 | 0.00 | 83 | 1009.2 |
| 20260508201351 | 75 | 135 | 3.0 | 3.0 | 0.00 | 0.00 | 0.00 | 83 | 1009.1 |
| 20260508200848 | 76 | 145 | 4.0 | 5.0 | 0.00 | 0.00 | 0.00 | 82 | 1009.1 |
| 20260508200345 | 76 | 93 | 0.0 | 1.0 | 0.00 | 0.00 | 0.00 | 83 | 1009.2 |
| 20260508195840 | 75 | 66 | 1.0 | 1.0 | 0.00 | 0.00 | 0.00 | 84 | 1009.3 |
| 20260508195337 | 74 | 103 | 3.0 | 3.0 | 0.00 | 0.00 | 0.00 | 84 | 1009.6 |
| 20260508194833 | 73 | 111 | 2.0 | 2.0 | 0.00 | 0.00 | 0.00 | 86 | 1009.4 |
| 20260508194331 | 73 | 96 | 2.0 | 2.0 | 0.00 | 0.00 | 0.00 | 86 | 1009.3 |
| 20260508193827 | 73 | 71 | 2.0 | 3.0 | 0.00 | 0.00 | 0.00 | 86 | 1009.8 |
| 20260508193324 | 73 | 127 | 3.0 | 3.0 | 0.00 | 0.00 | 0.00 | 86 | 1009.3 |
| 20260508192820 | 73 | 128 | 2.0 | 3.0 | 0.00 | 0.00 | 0.00 | 86 | 1009.5 |
| 20260508192318 | 73 | 139 | 2.0 | 2.0 | 0.00 | 0.00 | 0.00 | 86 | 1009.5 |
| 20260508191815 | 73 | 99 | 2.0 | 2.0 | 0.00 | 0.00 | 0.00 | 85 | 1009.4 |
| 20260508191312 | 72 | 80 | 2.0 | 3.0 | 0.00 | 0.00 | 0.00 | 86 | 1009.8 |
| 20260508190809 | 72 | 147 | 3.0 | 5.0 | 0.00 | 0.00 | 0.00 | 85 | 1009.7 |
| 20260508190306 | 73 | 131 | 3.0 | 3.0 | 0.00 | 0.00 | 0.00 | 85 | 1009.7 |
| 20260508185802 | 72 | 138 | 3.0 | 6.0 | 0.00 | 0.00 | 0.00 | 86 | 1009.6 |
| 20260508185259 | 72 | 63 | 3.0 | 5.0 | 0.00 | 0.00 | 0.00 | 86 | 1010.1 |
| 20260508184756 | 72 | 64 | 1.0 | 2.0 | 0.00 | 0.00 | 0.00 | 86 | 1010.0 |
| 20260508184254 | 71 | 45 | 1.0 | 1.0 | 0.00 | 0.00 | 0.00 | 88 | 1010.1 |
| 20260508183750 | 71 | 146 | 4.0 | 5.0 | 0.00 | 0.00 | 0.00 | 87 | 1010.0 |
| 20260508183247 | 71 | 121 | 2.0 | 2.0 | 0.00 | 0.00 | 0.00 | 88 | 1010.3 |
| 20260508182743 | 70 | 118 | 2.0 | 2.0 | 0.00 | 0.00 | 0.00 | 88 | 1010.4 |
| 20260508182240 | 71 | 149 | 3.0 | 3.0 | 0.00 | 0.00 | 0.00 | 88 | 1010.5 |
| 20260508181735 | 71 | 124 | 3.0 | 5.0 | 0.00 | 0.00 | 0.00 | 87 | 1010.4 |
| 20260508181233 | 71 | 117 | 1.0 | 2.0 | 0.00 | 0.00 | 0.00 | 86 | 1010.7 |
| 20260508180729 | 71 | 75 | 1.0 | 1.0 | 0.00 | 0.00 | 0.00 | 86 | 1010.8 |
| 20260508180226 | 71 | 101 | 1.0 | 1.0 | 0.00 | 0.00 | 0.00 | 86 | 1010.6 |
| 20260508175722 | 0 | 0.0 | 0.0 | 0.00 | 0.00 | 0.00 | 1010.7 | ||
| 20260508175219 | 70 | 91 | 1.0 | 1.0 | 0.00 | 0.00 | 0.00 | 87 | 1010.7 |
| 20260508174717 | 70 | 91 | 1.0 | 1.0 | 0.00 | 0.00 | 0.00 | 87 | 1010.9 |
| 20260508174215 | 70 | 114 | 2.0 | 2.0 | 0.00 | 0.00 | 0.00 | 86 | 1010.9 |
| 20260508173710 | 71 | 73 | 2.0 | 3.0 | 0.00 | 0.00 | 0.00 | 85 | 1010.9 |
| 20260508173206 | 71 | 115 | 3.0 | 3.0 | 0.00 | 0.00 | 0.00 | 85 | 1010.8 |
| 20260508172704 | 0 | 0.0 | 0.0 | 0.00 | 0.00 | 0.00 | 1010.9 | ||
| 20260508172200 | 0 | 0.0 | 0.0 | 0.00 | 0.00 | 0.00 | 1010.8 | ||
| 20260508171657 | 71 | 137 | 3.0 | 3.0 | 0.00 | 0.00 | 0.00 | 85 | 1010.9 |
| 20260508171153 | 71 | 137 | 3.0 | 3.0 | 0.00 | 0.00 | 0.00 | 85 | 1010.9 |
| 20260508170650 | 70 | 63 | 0.0 | 1.0 | 0.00 | 0.00 | 0.00 | 85 | 1011.0 |
| 20260508170148 | 70 | 39 | 0.0 | 0.0 | 0.00 | 0.00 | 0.00 | 85 | 1010.9 |
| 20260508165645 | 70 | 60 | 0.0 | 0.0 | 0.00 | 0.00 | 0.00 | 86 | 1010.8 |
| 20260508165142 | 70 | 61 | 0.0 | 0.0 | 0.00 | 0.00 | 0.00 | 86 | 1011.0 |
| 20260508164638 | 70 | 49 | 1.0 | 1.0 | 0.00 | 0.00 | 0.00 | 85 | 1011.0 |
| 20260508164135 | 69 | 48 | 0.0 | 0.0 | 0.00 | 0.00 | 0.00 | 87 | 1011.1 |
| 20260508163633 | 68 | 57 | 0.0 | 0.0 | 0.00 | 0.00 | 0.00 | 88 | 1011.0 |
| 20260508163130 | 68 | 26 | 0.0 | 1.0 | 0.00 | 0.00 | 0.00 | 89 | 1011.3 |
| 20260508162626 | 66 | 41 | 0.0 | 0.0 | 0.00 | 0.00 | 0.00 | 90 | 1011.4 |
| 20260508162123 | 66 | 64 | 0.0 | 1.0 | 0.00 | 0.00 | 0.00 | 90 | 1011.4 |
| 20260508161620 | 66 | 51 | 0.0 | 1.0 | 0.00 | 0.00 | 0.00 | 91 | 1011.3 |
| 20260508161118 | 66 | 23 | 1.0 | 1.0 | 0.00 | 0.00 | 0.00 | 91 | 1011.5 |
| 20260508160616 | 65 | 63 | 0.0 | 0.0 | 0.00 | 0.00 | 0.00 | 91 | 1011.6 |
| 20260508160113 | 65 | 46 | 0.0 | 0.0 | 0.00 | 0.00 | 0.00 | 92 | 1011.6 |
| 20260508155610 | 65 | 63 | 0.0 | 1.0 | 0.00 | 0.00 | 0.00 | 92 | 1011.5 |
| 20260508155107 | 65 | 55 | 0.0 | 0.0 | 0.00 | 0.00 | 0.00 | 93 | 1011.8 |
| 20260508154603 | 64 | 58 | 0.0 | 1.0 | 0.00 | 0.00 | 0.00 | 94 | 1011.7 |
| 20260508154101 | 64 | 38 | 1.0 | 1.0 | 0.00 | 0.00 | 0.00 | 94 | 1011.9 |
| 20260508153557 | 63 | 63 | 2.0 | 3.0 | 0.00 | 0.00 | 0.00 | 94 | 1012.0 |
| 20260508153054 | 63 | 31 | 1.0 | 2.0 | 0.00 | 0.00 | 0.00 | 95 | 1012.2 |
| 20260508152551 | 63 | 21 | 1.0 | 1.0 | 0.00 | 0.00 | 0.00 | 95 | 1012.1 |
| 20260508152046 | 62 | 43 | 0.0 | 0.0 | 0.00 | 0.00 | 0.00 | 95 | 1012.1 |
| 20260508151543 | 63 | 52 | 1.0 | 2.0 | 0.00 | 0.00 | 0.00 | 95 | 1012.2 |
| 20260508151040 | 62 | 51 | 1.0 | 1.0 | 0.00 | 0.00 | 0.00 | 96 | 1012.1 |
| 20260508150537 | 63 | 29 | 1.0 | 1.0 | 0.00 | 0.00 | 0.00 | 96 | 1012.4 |
| 20260508150033 | 62 | 34 | 0.0 | 0.0 | 0.00 | 0.00 | 0.00 | 96 | 1012.3 |
| 20260508145530 | 62 | 49 | 0.0 | 0.0 | 0.00 | 0.00 | 0.00 | 96 | 1012.4 |
| 20260508145026 | 62 | 53 | 0.0 | 0.0 | 0.00 | 0.00 | 0.00 | 96 | 1012.3 |
| 20260508144523 | 61 | 47 | 0.0 | 0.0 | 0.00 | 0.00 | 0.00 | 96 | 1012.4 |
| 20260508144021 | 61 | 58 | 0.0 | 0.0 | 0.00 | 0.00 | 0.00 | 96 | 1012.1 |
| 20260508143513 | 61 | 50 | 0.0 | 0.0 | 0.00 | 0.00 | 0.00 | 96 | 1012.1 |
| 20260508143009 | 60 | 50 | 0.0 | 0.0 | 0.00 | 0.00 | 0.00 | 96 | 1012.4 |
| 20260508142506 | 60 | 60 | 0.0 | 0.0 | 0.00 | 0.00 | 0.00 | 96 | 1012.3 |
| 20260508142003 | 60 | 44 | 1.0 | 1.0 | 0.00 | 0.00 | 0.00 | 96 | 1012.6 |
| 20260508141459 | 60 | 48 | 1.0 | 1.0 | 0.00 | 0.00 | 0.00 | 96 | 1012.8 |
| 20260508140957 | 60 | 56 | 0.0 | 0.0 | 0.00 | 0.00 | 0.00 | 96 | 1012.4 |
| 20260508140454 | 60 | 26 | 1.0 | 1.0 | 0.00 | 0.00 | 0.00 | 96 | 1012.3 |
| 20260508135949 | 60 | 55 | 0.0 | 0.0 | 0.00 | 0.00 | 0.00 | 96 | 1012.1 |
| 20260508135446 | 60 | 82 | 0.0 | 1.0 | 0.00 | 0.00 | 0.00 | 96 | 1012.1 |
| 20260508134943 | 59 | 43 | 0.0 | 0.0 | 0.00 | 0.00 | 0.00 | 96 | 1012.1 |
| 20260508134439 | 60 | 70 | 0.0 | 0.0 | 0.00 | 0.00 | 0.00 | 96 | 1012.2 |
| 20260508133936 | 59 | 61 | 0.0 | 0.0 | 0.00 | 0.00 | 0.00 | 96 | 1012.2 |
| 20260508133434 | 59 | 39 | 0.0 | 0.0 | 0.00 | 0.00 | 0.00 | 96 | 1011.8 |
| 20260508132930 | 59 | 43 | 0.0 | 0.0 | 0.00 | 0.00 | 0.00 | 96 | 1011.9 |
| 20260508132428 | 59 | 48 | 0.0 | 0.0 | 0.00 | 0.00 | 0.00 | 96 | 1012.3 |
| 20260508131925 | 59 | 64 | 0.0 | 0.0 | 0.00 | 0.00 | 0.00 | 96 | 1012.3 |
| 20260508131420 | 59 | 43 | 0.0 | 0.0 | 0.00 | 0.00 | 0.00 | 96 | 1012.2 |
| 20260508130917 | 59 | 47 | 0.0 | 0.0 | 0.00 | 0.00 | 0.00 | 96 | 1012.2 |
| 20260508130414 | 59 | 59 | 0.0 | 0.0 | 0.00 | 0.00 | 0.00 | 96 | 1012.4 |
| 20260508125910 | 59 | 56 | 0.0 | 0.0 | 0.00 | 0.00 | 0.00 | 96 | 1012.3 |
| 20260508125406 | 59 | 34 | 1.0 | 1.0 | 0.00 | 0.00 | 0.00 | 96 | 1012.4 |
| 20260508124904 | 59 | 25 | 0.0 | 0.0 | 0.00 | 0.00 | 0.00 | 96 | 1012.5 |
| 20260508124401 | 59 | 41 | 0.0 | 0.0 | 0.00 | 0.00 | 0.00 | 96 | 1012.4 |
| 20260508123859 | 59 | 59 | 0.0 | 0.0 | 0.00 | 0.00 | 0.00 | 96 | 1012.4 |
| 20260508123357 | 59 | 61 | 0.0 | 0.0 | 0.00 | 0.00 | 0.00 | 96 | 1012.6 |
| 20260508122853 | 59 | 45 | 0.0 | 1.0 | 0.00 | 0.00 | 0.00 | 96 | 1012.3 |
| 20260508122350 | 59 | 66 | 1.0 | 2.0 | 0.00 | 0.00 | 0.00 | 96 | 1012.3 |
| 20260508121848 | 59 | 56 | 1.0 | 2.0 | 0.00 | 0.00 | 0.00 | 96 | 1012.5 |
| 20260508121346 | 59 | 42 | 1.0 | 1.0 | 0.00 | 0.00 | 0.00 | 96 | 1012.4 |
| 20260508120843 | 59 | 28 | 1.0 | 1.0 | 0.00 | 0.00 | 0.00 | 96 | 1012.6 |
| 20260508120341 | 59 | 47 | 0.0 | 0.0 | 0.00 | 0.00 | 0.00 | 95 | 1012.3 |
| 20260508115838 | 59 | 24 | 1.0 | 2.0 | 0.00 | 0.00 | 0.00 | 95 | 1012.0 |
| 20260508115336 | 59 | 27 | 2.0 | 3.0 | 0.00 | 0.00 | 0.00 | 95 | 1011.9 |